CST,Max TemperatureF,Mean TemperatureF,Min TemperatureF,Max Dew PointF,MeanDew PointF,Min DewpointF,Max Humidity, Mean Humidity, Min Humidity, Max Sea Level PressureIn, Mean Sea Level PressureIn, Min Sea Level PressureIn, Max VisibilityMiles, Mean VisibilityMiles, Min VisibilityMiles, Max Wind SpeedMPH, Mean Wind SpeedMPH, Max Gust SpeedMPH,PrecipitationIn, CloudCover, Events, WindDirDegrees
2012-12-1,84,78,71,72,69,68,93,78,58,30.13,30.09,30.04,10,9,6,21,10,28,0.00,2,,141
2012-12-2,82,76,69,68,67,66,93,76,56,30.13,30.09,30.05,10,10,9,17,10,23,0.00,1,,136
2012-12-3,84,75,66,69,65,61,93,76,44,30.06,30.02,29.95,10,9,6,22,9,32,0.00,0,,156
2012-12-4,86,77,68,71,69,66,97,81,53,30.12,30.07,30.00,10,7,0,15,7,17,0.00,2,Fog,151
2012-12-5,77,70,63,69,64,58,94,82,60,30.19,30.11,30.04,10,8,4,16,9,24,0.11,5,Rain-Thunderstorm,14
2012-12-6,79,66,53,67,61,52,96,82,64,30.03,29.94,29.86,10,8,2,14,3,,0.00,1,,132
2012-12-7,84,76,68,70,67,65,93,76,53,29.87,29.82,29.77,10,10,7,21,10,26,0.00,1,,153
2012-12-8,82,77,72,71,69,68,91,76,60,29.89,29.84,29.79,9,7,5,21,11,29,0.00,3,,148
2012-12-9,84,78,73,72,70,67,91,78,58,29.90,29.83,29.77,9,6,3,20,10,28,0.00,3,,162
2012-12-10,75,64,53,72,48,30,93,63,37,30.10,29.97,29.78,10,8,3,30,13,39,0.01,4,Rain,336
2012-12-11,59,56,52,44,41,36,69,58,51,30.19,30.11,30.04,10,10,10,17,10,,0.00,6,Rain,340
2012-12-12,68,57,46,50,42,32,83,57,43,30.29,30.23,30.20,10,10,9,15,9,22,0.00,1,,356
2012-12-13,75,65,55,61,55,49,84,68,51,30.25,30.19,30.14,10,10,10,16,7,24,0.00,6,,112
2012-12-14,79,74,69,70,66,61,83,74,62,30.12,30.00,29.92,10,10,8,23,13,31,0.00,7,Rain,145
2012-12-15,84,78,73,72,71,69,90,80,61,29.92,29.87,29.81,8,7,4,21,12,32,0.00,7,,161
2012-12-16,84,78,73,72,71,69,94,80,59,29.86,29.80,29.71,7,6,3,16,10,25,0.00,6,,186
2012-12-17,80,68,55,70,57,39,94,70,23,30.01,29.91,29.83,10,8,4,16,5,,0.00,1,Rain,8
2012-12-18,84,68,51,70,62,48,100,81,51,29.98,29.90,29.83,10,7,0,21,9,28,0.00,1,Fog,168
2012-12-19,82,78,73,72,70,66,91,77,58,29.84,29.78,29.70,9,7,6,30,17,38,0.00,3,,167
2012-12-20,73,60,48,70,33,10,94,39,13,30.47,30.20,29.81,10,7,2,32,15,45,0.00,3,,334
2012-12-21,66,56,45,49,32,15,80,44,26,30.53,30.44,30.34,10,10,10,13,9,,0.00,0,,6
2012-12-22,75,64,54,61,56,48,87,68,51,30.32,30.22,30.11,10,10,9,23,9,30,0.00,4,,141
2012-12-23,81,72,62,65,62,58,90,73,49,30.09,30.00,29.92,10,9,8,20,9,32,0.00,1,,177
2012-12-24,79,71,63,68,65,60,93,78,61,29.96,29.85,29.72,10,8,5,18,9,24,0.00,1,,167
2012-12-25,87,74,54,68,55,28,84,57,24,30.10,29.76,29.63,10,9,7,20,12,29,0.00,2,,218
2012-12-26,53,47,41,40,33,23,76,56,36,30.29,30.17,30.10,10,10,9,21,14,28,0.00,2,,337
2012-12-27,66,58,50,60,50,40,84,67,55,30.07,29.90,29.80,10,10,9,8,4,,0.00,7,,343
2012-12-28,72,64,55,63,56,42,88,70,36,30.12,29.86,29.75,10,9,6,21,6,25,0.00,4,,319
2012-12-29,62,54,46,49,37,27,67,55,38,30.44,30.35,30.14,10,10,9,23,15,33,0.00,0,,347
2012-12-30,72,58,45,59,44,25,70,56,41,30.40,30.27,30.14,10,10,9,16,9,,0.00,5,,94
2012-12-31,79,72,66,67,64,62,94,76,60,30.12,30.00,29.90,10,9,5,20,11,29,0.00,7,Rain,176